Regional Weather Roundup
Issued by NWS Mt. Holly, NJ

Home | Current Version | Previous Version | Text Only | Print | Product List | Glossary On
Versions: 1 2 3 4 5 6 7 8 9 10 11 12 13 14 15 16 17 18 19 20 21 22 23 24 25 26 27 28 29 30 31 32 33 34 35 36 37 38 39 40 41 42 43 44 45 46 47 48 49 50
000
ASUS41 KPHI 281512
RWRPHI

REGIONAL WEATHER ROUNDUP
NATIONAL WEATHER SERVICE MOUNT HOLLY NJ
1100 AM EDT FRI AUG 28 2015

NOTE:  "FAIR" INDICATES FEW OR NO CLOUDS BELOW 12,000 FEET WITH NO
SIGNIFICANT WEATHER AND/OR OBSTRUCTIONS TO VISIBILITY.

 * = STATION DOES NOT REPORT PRECIPITATION (E.G. RAIN, SNOW, ETC.)
        OR FOG.

NJZ015>026-281600-
SOUTHERN NEW JERSEY

CITY           SKY/WX    TMP DP  RH WIND       PRES   REMARKS
POMONA         SUNNY     79  50  36 NE5       30.21R
MILLVILLE      SUNNY     76  55  48 CALM      30.21R
WRIGHTSTOWN    SUNNY     74  55  50 N6        30.18S
MOUNT HOLLY    SUNNY     74  53  48 CALM      30.21R
TRENTON        SUNNY     74  54  49 N5        30.21R

$$
NJZ001>014-281600-
NORTHERN NEW JERSEY

CITY           SKY/WX    TMP DP  RH WIND       PRES   REMARKS
SUSSEX         SUNNY     70  53  54 VRB3      30.22R
ANDOVER*         N/A     70  54  56 VRB3      30.23R
MORRISTOWN     MOSUNNY   75  55  50 NW8       30.21R
NEWARK         MOSUNNY   77  52  41 W7        30.19S
TETERBORO      SUNNY     75  51  43 N7        30.18S
CALDWELL       SUNNY     74  50  42 VRB5      30.20S
SOMERVILLE     SUNNY     74  52  46 NW6       30.19R
ALLAIRE*       SUNNY     75  54  46 NW7       30.20R
TOMS RIVER*    SUNNY     73  54  49 NW6       30.21R

$$
PAZ043-044-047-054-055-060>062-066>071-281600-
EASTERN PENNSYLVANIA

CITY           SKY/WX    TMP DP  RH WIND       PRES   REMARKS
PHILADELPHIA   SUNNY     77  51  40 NW5       30.21R
NORTH PHILA    SUNNY     76  51  41 VRB6      30.22S
BLUE BELL      SUNNY     73  55  53 CALM      30.21S
DOYLESTOWN     SUNNY     71  56  58 N6        30.22R
QUAKERTOWN*    SUNNY     72  55  56 N5        30.23S
POTTSTOWN      SUNNY     72  56  57 CALM      30.23S
LANCASTER      SUNNY     73  57  57 W7        30.22S
COATESVILLE    SUNNY     72  55  56 SW3       30.23S
READING        MOSUNNY   72  55  55 CALM      30.21S
ALLENTOWN      SUNNY     72  56  57 CALM      30.22S
MOUNT POCONO   PTSUNNY   64  51  62 N7        30.25R
HAZLETON       CLOUDY    64  54  68 NW6       30.28S
WILKES BARRE   MOSUNNY   69  55  60 CALM      30.24S

$$
DEZALL-MDZ008-012-015-019-020-281600-
DELAWARE AND EASTERN MARYLAND

CITY           SKY/WX    TMP DP  RH WIND       PRES   REMARKS
WILMINGTON     SUNNY     76  55  48 VRB5      30.22S
DOVER          SUNNY     75  59  57 VRB2      30.21R
GEORGETOWN     SUNNY     77  56  48 NE8       30.22R
EASTON         SUNNY     75  59  57 NE7       30.25S
ABERDEEN       SUNNY     77  61  57 CALM      30.20R
PATUXENT       MOSUNNY   77  59  53 NE8       30.22R
OCEAN CITY     SUNNY     77  56  48 NE10      30.21R
WALLOPS ISLAND MOSUNNY   79  58  48 NE9       30.21R
CAMBRIDGE      SUNNY     77  55  47 NE3       30.22R
SALISBURY      SUNNY     77  59  53 N8        30.21R

$$
PAZ001-021-NYZ056-072-MDZ011-DCZ001-281600-
OTHER NEARBY LOCATIONS

CITY           SKY/WX    TMP DP  RH WIND       PRES   REMARKS
HARRISBURG     MOSUNNY   73  58  59 W6        30.22R
STATE COLLEGE  MOSUNNY   66  59  77 CALM      30.25S
WILLIAMSPORT   SUNNY     69  55  60 S5        30.22F
BINGHAMTON     SUNNY     64  51  62 CALM      30.25S
NEW YORK CITY  SUNNY     73  51  46 VRB5      30.22R
BALTIMORE      MOSUNNY   75  55  49 E5        30.22R
WASHINGTON DC  MOSUNNY   77  56  48 E3        30.22S

$$


USA.gov is the U.S. government's official web portal to all federal, state and local government web resources and services.